MOLNIYA 3-10

Last updated on Dec. 5, 2020, 6:14 a.m. UTC

1 11057U 78095A   20339.11590901  .00000752  00000-0  44633-3 0  9993
2 11057  62.8211 250.3299 5910250 302.1607  13.7929  4.09791936360779
UTC
Height (km)
Latitude
Longitude
Inclination
Orbital Period
UTC large
Height (km)
Speed (km/s)
/
Latitude / Longitude
Inclination (degrees)
Orbital Period (minutes)
Azimuth
Elevation
Range (km)
Doppler Factor
iOS Compass Heading
iOS Angle

Next 30 passes for location: Hong Kong

Rise time Rise Azimuth (degrees) Set time Set Azimuth (degrees) Duration Max altitude (degrees)

No matching passes for this satellites